Location: Titusville
(28.6119°N, 80.8078°W)
Time: 20:41:03
(UTC-04:00)

ISS - Visible Passes

Search period start: 24 June 2018 00:00
Search period end: 04 July 2018 00:00
Orbit: 402 x 407 km, 51.6° (Epoch: 25 June)

Date Brightness Start Highest point End Pass type
(mag) Time Alt. Az. Time Alt. Az. Time Alt. Az.
28 Jun -1.9 05:25:11 10° S 05:27:49 24° SE 05:30:31 10° ENE visible
29 Jun -1.0 04:35:26 10° SE 04:35:52 11° SE 04:36:38 10° ESE visible
30 Jun -3.9 05:18:16 27° SW 05:19:52 82° SE 05:23:10 10° NE visible
01 Jul -2.3 04:28:20 30° ESE 04:28:20 30° ESE 04:30:47 10° ENE visible
01 Jul -1.6 06:02:13 10° WNW 06:04:21 16° NW 06:06:28 10° N visible
02 Jul -2.6 05:10:59 24° WNW 05:12:03 30° NW 05:15:00 10° NNE visible
03 Jul -2.5 04:20:53 39° NNE 04:20:53 39° NNE 04:23:07 10° NE visible
